"Pseudo-MPEC" for C3LLV52

Created 2020 Oct 19 14:07:11 UT using Find_Orb

Click here for an explanation of pseudo-MPECs

 
 Astrometry: 
     C3LLV52  C2020 10 17.32119102 26 28.09 -03 42 36.2    ~AH8q 20.75GVNEOCPG96
     C3LLV52  C2020 10 17.32632902 26 25.39 -03 41 59.1    ~AH8q 21.23GVNEOCPG96
     C3LLV52  C2020 10 17.33146802 26 22.68 -03 41 22.4    ~AH8q 20.51GVNEOCPG96
     C3LLV52  C2020 10 17.33661102 26 19.92 -03 40 44.7    ~AH8q 20.47GVNEOCPG96
     C3LLV52 KC2020 10 17.42444802 25 33.40 -03 30 09.0    ~AHAb 20.72GVNEOCPI52
     C3LLV52 KC2020 10 17.42612902 25 32.52 -03 29 56.6    ~AHAb 20.41GVNEOCPI52
     C3LLV52 KC2020 10 17.42780902 25 31.63 -03 29 44.7    ~AHAb 20.59GVNEOCPI52
     C3LLV52 KC2020 10 17.42949002 25 30.74 -03 29 32.7    ~AHAb 20.81GVNEOCPI52
     C3LLV52 KC2020 10 18.27542602 18 10.29 -01 46 14.5    ~AI6q 20.41GVNEOCPI52
     C3LLV52 KC2020 10 18.27661302 18 09.66 -01 46 05.2    ~AI6q 20.69GVNEOCPI52
     C3LLV52 KC2020 10 18.27780002 18 09.00 -01 45 56.5    ~AI6q 20.43GVNEOCPI52
     C3LLV52 KC2020 10 18!$dCAstrometryWwd1tG!m*redacted;A`ygDAWUaNK(KAE5B#S?L01
     C3LLV52 KC2020 10 18)0GvjnQclick^xrhereDR_BforM=w4ky9t$Zsexplanation9VvlL01
     C3LLV52 KC2020 10 18vYW8Z-](^AZV?fa93^($7AR;KUX!!TZ2Gn?*v#%14Dw*_7=CsAZ:L01
     C3LLV52 KC2020 10 18.97295902 12 00.23 -00 19 38.1    ~AINq 20.0 GVNEOCPI93
     C3LLV52 KC2020 10 18.97699002 11 57.97 -00 19 08.6    ~AINq 20.5 GVNEOCPI93
     C3LLV52 KC2020 10 18.98102302 11 55.81 -00 18 38.0    ~AINq 20.4 GVNEOCPI93
     C3LLV52 KC2020 10 19.25753502 09 28.37 +00 16 07.9    ~AJ6b 19.67GVNEOCPI52
     C3LLV52 KC2020 10 19.25837502 09 27.93 +00 16 14.2    ~AJ6b 19.94GVNEOCPI52
     C3LLV52 KC2020 10 19.25921902 09 27.50 +00 16 20.6    ~AJ6b 20.01GVNEOCPI52

Station data:
(G96) Mt. Lemmon Survey  (N32.442754 W110.788720)  US/Arizona.  Observers T.
   A. Pruyne, B. M. Africano, E. J. Christensen, G. A. Farneth, D. C. Fuls,
   A. R. Gibbs, A. D. Grauer, H. Gröller, J. A. Johnson, R. A. Kowalski, S.
   M. Larson, G. J. Leonard, D. Rankin, R. L. Seaman, F. C. Shelly. 1.5-m
   reflector + 10K CCD.
(I52) Steward Observatory, Mt. Lemmon Station  (N32.442547 W110.788920)
   US/Arizona.  Observers T. A. Pruyne, B. M. Africano, E. J. Christensen, G.
   A. Farneth, D. C. Fuls, A. R. Gibbs, A. D. Grauer, H. Gröller, J. A.
   Johnson, R. A. Kowalski, S. M. Larson, G. J. Leonard, D. Rankin, R. L.
   Seaman, F. C. Shelly. 1.0-m reflector + CCD.
(I93) St Pardon de Conques  (N44.558710 W0.203000)  France.  Observer F.
   Losse. 0.40-m f/3.7 reflector + CCD.
(L01) Višnjan Observatory, Tičan  (N45.290900 E13.749300)  Croatia.
   Observers K. Korlević, E. Pettarin. Measurer E. Pettarin. 1.0-m f/2.9
   reflector + CCD.

Orbital elements:  C3LLV52
   Perihelion 2020 Sep 16.907176 +/- 2.38 TT = 21:46:20 (JD 2459109.407176)
Epoch 2020 Oct 19.0 TT = JDT 2459141.5   Earth MOID: 0.2440   Ma: 0.0041
M  18.60081954 +/- 1.8              (J2000 ecliptic)          AutoNEOCP
n   0.57959436 +/- 0.0167           Peri.  331.66482 +/- 1.8
a   1.42468859 +/- 0.0274           Node    29.16516 +/- 0.016
e   0.1422773 +/- 0.0131            Incl.   45.85670 +/- 0.7
P   1.70/621.11d           H 22.6   G  0.15   U 10.0  
q 1.22198769 +/- 0.00496    Q 1.62738950 +/- 0.0513
From 20 observations 2020 Oct. 17-19 (46.5 hr); mean residual 0".26
Residuals in arcseconds: 
201017 G96  .06-  .04+    201017 I52  .13-  .13-    201018 I93  .73+  .37+    
201017 G96  .25+  .03+    201018 I52  .24-  .50-    201018 I93  .29-  .38-    
201017 G96  .42+  .39-    201018 I52  .10-  .01+    201018 I93  .22+  .05-    
201017 G96  .12-  .16+    201018 I52  .40-  .08-    201019 I52  .56-  .04-    
201017 I52  .21-  .13+    201018 L01  .04+  .19+    201019 I52  .27-  .07-    
201017 I52  .08-  .34+    201018 L01  .19+  .23+    201019 I52  .21+  .04-    
201017 I52  .11-  .06+    201018 L01  .09-  .03-    

Ephemerides (geocentric):
Date (UTC) HH   RA              Dec         delta   r     elong  mag " sig PA
---- -- -- --  -------------   -----------  ------ ------ -----  --- ---- ---
2020 10 19 14  02 06 32.765   +00 57 27.66  .24490 1.2367 168.3 20.6 .370 156
2020 10 19 15  02 06 10.348   +01 02 43.08  .24485 1.2368 168.5 20.6 .365 156
2020 10 19 16  02 05 47.919   +01 07 58.64  .24480 1.2368 168.6 20.6 .359 156
2020 10 19 17  02 05 25.479   +01 13 14.35  .24476 1.2368 168.8 20.6 .353 156
2020 10 19 18  02 05 03.028   +01 18 30.19  .24471 1.2369 168.9 20.6 .347 156
2020 10 19 19  02 04 40.567   +01 23 46.16  .24467 1.2369 169.0 20.6 .340 157
2020 10 19 20  02 04 18.094   +01 29 02.26  .24463 1.2370 169.2 20.6 .333 157
2020 10 19 21  02 03 55.611   +01 34 18.47  .24459 1.2370 169.3 20.6 .326 157
2020 10 19 22  02 03 33.118   +01 39 34.81  .24455 1.2370 169.4 20.6 .318 157
2020 10 19 23  02 03 10.614   +01 44 51.26  .24452 1.2371 169.6 20.6 .310 158
2020 10 20 00  02 02 48.101   +01 50 07.81  .24448 1.2371 169.7 20.5 .301 158
2020 10 20 01  02 02 25.578   +01 55 24.47  .24445 1.2371 169.8 20.5 .292 159
2020 10 20 02  02 02 03.045   +02 00 41.22  .24442 1.2372 170.0 20.5 .283 160
2020 10 20 03  02 01 40.502   +02 05 58.07  .24439 1.2372 170.1 20.5 .273 160
2020 10 20 04  02 01 17.950   +02 11 15.01  .24436 1.2373 170.2 20.5 .263 161
2020 10 20 05  02 00 55.390   +02 16 32.03  .24433 1.2373 170.4 20.5 .252 162
2020 10 20 06  02 00 32.820   +02 21 49.13  .24430 1.2373 170.5 20.5 .241 164
2020 10 20 07  02 00 10.242   +02 27 06.30  .24428 1.2374 170.6 20.5 .230 165
2020 10 20 08  01 59 47.655   +02 32 23.54  .24425 1.2374 170.8 20.5 .219 167
2020 10 20 09  01 59 25.059   +02 37 40.85  .24423 1.2374 170.9 20.5 .207 169
2020 10 20 10  01 59 02.456   +02 42 58.21  .24421 1.2375 171.0 20.5 .196 171
2020 10 20 11  01 58 39.845   +02 48 15.63  .24419 1.2375 171.2 20.5 .184 174
2020 10 20 12  01 58 17.225   +02 53 33.11  .24417 1.2376 171.3 20.5 .173 177
2020 10 20 13  01 57 54.598   +02 58 50.62  .24416 1.2376 171.4 20.5 .161   1
2020 10 20 14  01 57 31.964   +03 04 08.18  .24414 1.2376 171.6 20.5 .151   5
2020 10 20 15  01 57 09.323   +03 09 25.77  .24413 1.2377 171.7 20.5 .141  11
2020 10 20 16  01 56 46.674   +03 14 43.40  .24412 1.2377 171.8 20.5 .133  17
2020 10 20 17  01 56 24.019   +03 20 01.05  .24411 1.2377 171.9 20.5 .126  25
2020 10 20 18  01 56 01.357   +03 25 18.72  .24410 1.2378 172.1 20.5 .122  33
2020 10 20 19  01 55 38.688   +03 30 36.40  .24409 1.2378 172.2 20.5 .120  43
2020 10 20 20  01 55 16.013   +03 35 54.10  .24408 1.2379 172.3 20.5 .122  52
2020 10 20 21  01 54 53.332   +03 41 11.81  .24408 1.2379 172.4 20.4 .128  61
2020 10 20 22  01 54 30.645   +03 46 29.51  .24407 1.2379 172.5 20.4 .136  70
2020 10 20 23  01 54 07.952   +03 51 47.22  .24407 1.2380 172.7 20.4 .148  77
2020 10 21 00  01 53 45.254   +03 57 04.91  .24407 1.2380 172.8 20.4 .163  83
2020 10 21 01  01 53 22.550   +04 02 22.60  .24407 1.2381 172.9 20.4 .179  89
2020 10 21 02  01 52 59.842   +04 07 40.26  .24407 1.2381 173.0 20.4 .198  94
2020 10 21 03  01 52 37.128   +04 12 57.91  .24408 1.2381 173.1 20.4 .218  97
2020 10 21 04  01 52 14.409   +04 18 15.52  .24408 1.2382 173.2 20.4 .239 101
2020 10 21 05  01 51 51.686   +04 23 33.11  .24409 1.2382 173.3 20.4 .262 103
2020 10 21 06  01 51 28.958   +04 28 50.65  .24409 1.2382 173.5 20.4 .286 106
2020 10 21 07  01 51 06.226   +04 34 08.16  .24410 1.2383 173.6 20.4 .311 108
2020 10 21 08  01 50 43.490   +04 39 25.62  .24411 1.2383 173.7 20.4 .338 110
2020 10 21 09  01 50 20.751   +04 44 43.03  .24413 1.2384 173.8 20.4 .365 111
2020 10 21 10  01 49 58.007   +04 50 00.38  .24414 1.2384 173.9 20.4 .393 112
2020 10 21 11  01 49 35.260   +04 55 17.67  .24415 1.2384 174.0 20.4 .421 114
2020 10 21 12  01 49 12.510   +05 00 34.89  .24417 1.2385 174.1 20.4 .451 115
2020 10 21 13  01 48 49.757   +05 05 52.05  .24419 1.2385 174.2 20.4 .482 115